DateTimeUTC,F1_A11,F1_S11,BsB_S11,BsG_S11,BsR_S11,BbsB_S11,BbsG_S11,BbsR_S11,BaB_A11,BaG_A11,BaR_A11,Tu_S11,T_S11,Uu_S11,U_S11,P_S11,T1_A11
2021-11-15T20:00:00Z,00000200,21000000,,,,,,,0000.03,0000.11,0000.39,19.6,26.5,,00.0,0627.6,31.0
2021-11-15T20:01:00Z,00000200,21000000,,,,,,,0000.11,-000.00,-000.18,19.6,26.5,,00.0,0627.6,31.0
2021-11-15T20:02:00Z,00000200,21000000,,,,,,,-000.04,0000.24,-000.01,19.5,26.5,,00.0,0627.6,31.0
2021-11-15T20:03:00Z,00000200,61000000,,,,,,,0000.55,0000.01,0000.29,19.5,26.5,,00.0,0627.6,31.0
2021-11-15T20:04:00Z,00000200,41000000,0000.08,-000.14,0000.16,-000.13,-000.03,-000.39,-000.35,0000.09,-000.03,19.5,26.2,,00.0,0628.5,31.0
2021-11-15T20:05:00Z,00000200,01000000,-000.55,0000.16,0000.21,0000.26,-000.16,0000.13,0000.05,0000.03,-000.18,19.5,26.1,,00.0,0628.6,31.0
2021-11-15T20:06:00Z,00000200,01000000,-000.38,0000.25,0000.12,-000.39,-000.11,-000.10,0000.23,0000.44,0000.40,19.5,26.1,,00.0,0628.6,31.0
2021-11-15T20:07:00Z,00000200,01000000,-000.71,0000.19,0000.10,0000.37,0000.08,-000.07,0000.34,0000.13,0000.10,19.6,26.1,,00.0,0628.6,31.0
2021-11-15T20:08:00Z,00000200,01000000,0000.29,0000.14,0000.06,0000.13,-000.08,-000.09,0000.15,0000.05,0000.26,19.6,26.1,,00.0,0628.6,31.0
2021-11-15T20:09:00Z,00000200,01000000,0000.04,0000.16,0000.57,0000.12,-000.21,-000.06,0000.02,0000.31,-000.21,19.7,26.1,,00.0,0628.6,31.0
2021-11-15T20:10:00Z,00000200,01000000,0000.31,-000.10,0000.16,-000.04,-000.35,0000.24,0000.13,0000.27,0000.48,19.7,26.1,,00.0,0628.6,31.1
2021-11-15T20:11:00Z,00000200,01000000,0000.11,0000.40,0000.37,0000.24,-000.10,-000.42,0000.57,0000.05,0000.36,19.8,26.1,,00.0,0628.6,31.0
2021-11-15T20:12:00Z,00000200,01000000,-000.55,0000.14,0000.20,0001.05,0000.13,-000.17,0000.12,0000.24,0000.12,19.8,26.2,,00.0,0628.7,31.1
2021-11-15T20:13:00Z,00000200,01000000,0000.76,0000.20,0000.10,0000.22,0000.38,0000.11,0000.36,0000.02,0000.30,19.9,26.2,,00.0,0628.7,31.1
2021-11-15T20:14:00Z,00000200,01000000,0000.84,0000.26,0000.07,-000.03,-000.28,-000.41,-000.00,0000.29,-000.07,19.9,26.2,,00.0,0628.7,31.0
2021-11-15T20:15:00Z,00000200,01000000,0000.03,0000.07,0000.12,-000.50,-000.15,0000.27,0000.16,0000.28,-000.11,20.0,26.2,,00.0,0628.7,31.1
2021-11-15T20:16:00Z,00000200,01000000,0000.07,0000.08,0000.22,0000.07,0000.02,-000.12,-000.03,-000.14,0000.03,20.0,26.2,,00.0,0628.7,31.1
2021-11-15T20:17:00Z,00000200,01000000,0000.38,0000.32,0000.11,-000.16,-000.36,-000.04,0000.21,0000.42,0000.75,20.0,26.3,,00.0,0628.7,31.1
2021-11-15T20:18:00Z,00000200,01000000,0000.28,0000.04,-000.17,0000.14,0000.10,-000.23,0000.14,-000.23,-000.03,20.0,26.3,,00.0,0628.7,31.1
2021-11-15T20:19:00Z,00000200,01000000,0000.06,0000.07,0000.39,-000.15,-000.28,-000.14,0000.35,0000.19,-000.18,20.0,26.3,,00.0,0628.7,31.1
2021-11-15T20:20:00Z,00000200,01000000,0000.31,0000.30,0000.37,0000.19,0000.22,0000.14,0000.14,-000.26,0000.18,20.0,26.3,,00.0,0628.7,31.1
2021-11-15T20:21:00Z,00000200,01000000,0000.30,-000.01,0000.20,0000.29,-000.17,-000.20,0000.16,0000.70,-000.06,20.0,26.3,,00.0,0628.7,31.1
2021-11-15T20:22:00Z,00000200,01000000,0000.18,0000.39,0000.17,0000.13,-000.07,0000.06,0000.03,0000.09,0000.22,20.0,26.3,,00.0,0628.7,31.1
2021-11-15T20:23:00Z,00000200,01000000,-000.18,0000.03,0000.04,0000.25,0000.03,-000.34,0000.03,0000.39,0000.19,20.1,26.3,,00.0,0628.7,31.1
2021-11-15T20:24:00Z,00000200,01000000,0000.28,0000.14,-000.25,-000.78,0000.00,-000.20,0000.23,0000.50,0000.18,20.1,26.3,,00.0,0628.8,31.1
2021-11-15T20:25:00Z,00000200,01000000,0000.93,0000.30,-000.25,0000.48,-000.07,-000.27,0000.18,-000.40,0000.29,20.2,26.4,,00.0,0628.8,31.1
2021-11-15T20:26:00Z,00000200,01000000,-000.39,0000.35,0000.10,0000.29,-000.23,-000.07,0000.23,0000.38,0000.16,20.2,26.4,,00.0,0628.8,31.1
2021-11-15T20:27:00Z,00000200,01000000,-000.37,0000.01,0000.51,0000.01,-000.19,0000.09,-000.06,-000.18,-000.32,20.3,26.4,,00.0,0628.8,31.1
2021-11-15T20:28:00Z,00000200,01000000,0000.77,0000.05,0000.36,0000.37,-000.16,0000.34,0000.25,0000.39,0000.45,20.3,26.4,,00.0,0628.8,31.1
2021-11-15T20:29:00Z,00000200,01000000,-000.17,0000.28,0000.30,-000.36,0000.15,-000.42,0000.35,-000.21,0000.15,20.2,26.4,,00.0,0628.8,31.1
2021-11-15T20:30:00Z,00000200,01000000,0000.78,0000.18,0000.42,0000.16,-000.17,0000.01,0000.15,0000.47,0000.18,20.1,26.4,,00.0,0628.7,31.1
2021-11-15T20:31:00Z,00000200,01000000,0000.93,0000.11,-000.03,-000.20,-000.04,-000.30,-000.04,0000.07,-000.13,20.0,26.4,,00.0,0628.8,31.0
2021-11-15T20:32:00Z,00000200,01000000,0000.39,-000.03,0000.42,0000.18,0000.15,-000.27,0000.41,0000.17,0000.17,20.0,26.3,,00.0,0628.8,31.0
2021-11-15T20:33:00Z,00000200,01000000,0000.22,0000.17,0000.14,-000.19,-000.03,-000.15,0000.15,0000.39,0000.25,19.9,26.3,,00.0,0628.8,31.0
2021-11-15T20:34:00Z,00000200,01000000,0000.04,0000.25,-000.05,0000.08,-000.29,-000.00,-000.13,-000.04,-000.21,19.8,26.2,,00.0,0628.8,31.0
2021-11-15T20:35:00Z,00000200,01000000,0000.17,0000.14,0000.09,0000.05,-000.03,0000.09,0000.22,0000.06,0000.25,19.8,26.2,,00.0,0628.8,31.0
2021-11-15T20:36:00Z,00000200,01000000,-000.28,-000.11,0000.25,-000.30,-000.18,0000.05,-000.06,0000.12,-000.14,19.9,26.2,,00.0,0628.8,31.0
2021-11-15T20:37:00Z,00000200,01000000,-000.21,-000.02,-000.04,-000.34,-000.34,-000.17,0000.22,0000.05,0000.47,19.9,26.2,,00.0,0628.8,31.1
2021-11-15T20:38:00Z,00000200,01000000,-000.13,-000.04,0000.29,0000.46,-000.05,-000.19,0000.07,0000.23,-000.16,19.9,26.2,,00.0,0628.8,31.0
2021-11-15T20:39:00Z,00000200,01000000,0000.30,0000.42,0000.44,0000.31,-000.09,-000.10,0000.11,-000.01,0000.39,20.0,26.2,,00.0,0628.8,31.0
2021-11-15T20:40:00Z,00000200,01000000,-000.12,0000.25,0000.18,0000.73,0000.16,-000.32,0000.31,-000.03,-000.36,20.0,26.3,,00.0,0628.9,31.1
2021-11-15T20:41:00Z,00000200,01010000,-000.04,-000.00,0000.20,-000.19,-000.21,0000.08,0000.13,0000.01,0000.56,20.1,26.3,,00.0,0628.9,31.1
2021-11-15T20:42:00Z,00000200,01000000,0000.65,0000.04,0000.33,0000.03,0000.17,0000.09,0000.18,0000.88,0000.02,20.1,26.3,,00.0,0628.9,31.1
2021-11-15T20:43:00Z,00000200,01000000,0000.07,0000.41,0000.03,-000.17,0000.30,-000.00,0000.10,-000.34,0000.15,20.1,26.3,,00.0,0628.9,31.1
2021-11-15T20:44:00Z,00000200,01000000,-000.26,0000.20,0000.19,-000.02,0000.09,-000.15,0000.33,0000.00,0000.07,20.2,26.3,,00.0,0628.9,31.1
2021-11-15T20:45:00Z,00000200,01000000,-000.24,-000.04,0000.23,0000.82,-000.16,0000.32,-000.07,0000.20,0000.28,20.2,26.4,,00.0,0628.9,31.1
2021-11-15T20:46:00Z,00000200,01000000,-000.29,0000.23,0000.23,-000.18,0000.08,0000.17,0000.32,0000.40,0000.13,20.3,26.4,,00.0,0628.9,31.1
2021-11-15T20:47:00Z,00000200,01000000,-000.40,-000.29,0000.20,-000.13,-000.16,-000.38,0000.01,0000.15,-000.11,20.2,26.4,,00.0,0628.9,31.1
2021-11-15T20:48:00Z,00000200,01000000,-000.84,0000.03,0000.23,0000.36,-000.02,0000.15,0000.07,-000.21,0000.12,20.1,26.4,,00.0,0628.9,31.0
2021-11-15T20:49:00Z,00000200,01000000,0000.06,-000.18,0000.33,0000.64,0000.05,0000.07,0000.72,0000.27,-000.01,20.1,26.3,,00.0,0628.9,31.1
2021-11-15T20:50:00Z,00000200,01000000,-000.20,0000.34,0000.27,0000.01,-000.01,-000.43,-000.58,0000.06,-000.43,20.1,26.3,,00.0,0628.9,31.0
2021-11-15T20:51:00Z,00000200,01000000,0000.37,0000.34,0000.29,-000.07,0000.02,-000.02,0000.04,0000.09,0000.41,20.1,26.3,,00.0,0629.0,31.0
2021-11-15T20:52:00Z,00000200,01000000,0000.76,0000.27,0000.04,0000.44,-000.08,0000.10,0000.47,0000.06,0000.49,20.1,26.3,,00.0,0629.0,31.1
2021-11-15T20:53:00Z,00000200,01000000,-000.42,-000.15,0000.41,0000.03,-000.09,-000.02,0000.13,0000.14,0000.34,20.1,26.3,,00.0,0629.0,31.1
2021-11-15T20:54:00Z,00000200,01000000,0000.74,0000.08,0000.36,-000.25,0000.06,-000.36,0000.28,0000.40,-000.42,20.2,26.4,,00.0,0629.0,31.1
2021-11-15T20:55:00Z,00000200,01000000,0000.17,0000.27,0000.38,-000.14,0000.25,0000.01,-000.18,-000.03,0000.48,20.2,26.4,,00.0,0629.1,31.1
2021-11-15T20:56:00Z,00000200,01000000,-000.01,-000.12,-000.13,0000.64,-000.08,-000.24,0000.41,0000.22,-000.13,20.3,26.4,,00.0,0629.1,31.1
2021-11-15T20:57:00Z,00000200,41000000,,,,,,,-000.01,0000.15,0000.15,20.3,26.4,,00.0,0629.0,31.1
2021-11-15T20:58:00Z,00000200,61000000,,,,,,,0000.04,-000.19,-000.07,19.9,26.5,,00.0,0628.2,31.1
2021-11-15T20:59:00Z,00000200,21000000,,,,,,,-000.28,0000.04,0000.08,19.8,26.6,,00.0,0628.2,31.0
